EW2112 Weather Reports


Display with metric or nautical units.
time (UTC)temp
F
wind
direction
speed
MPH
gust
MPH
rain 1hr
in
rain 24hr
in
rain mn
in
humidity
%
barometer
mb
20260508104552 54 200 0.0 0.0 0.00 0.00 0.00 70 1017.7
20260508103051 55 200 0.0 0.0 0.00 0.00 0.00 68 1017.6
20260508101547 56 200 0.0 1.0 0.00 0.00 0.00 67 1017.4
20260508100046 56 200 0.0 0.0 0.00 0.00 0.00 65 1017.3
20260508094605 57 200 0.0 2.0 0.00 0.00 0.00 63 1017.1
20260508093040 58 200 0.0 2.0 0.00 0.00 0.00 62 1016.9
20260508091542 58 199 0.0 1.0 0.00 0.00 0.00 61 1016.8
20260508090038 59 197 0.0 0.0 0.00 0.00 0.00 59 1016.6
20260508084535 60 197 1.0 6.0 0.00 0.00 0.00 58 1016.3
20260508083034 61 219 1.0 4.0 0.00 0.00 0.00 56 1016.3
20260508081556 62 257 0.0 4.0 0.00 0.00 0.00 55 1016.1
20260508080031 62 261 2.0 8.0 0.00 0.00 0.00 53 1015.8
20260508074530 62 213 5.0 11.0 0.00 0.00 0.00 53 1015.5
20260508073033 63 211 4.0 11.0 0.00 0.00 0.00 52 1015.2
20260508071539 64 288 5.0 10.0 0.00 0.00 0.00 51 1014.8
20260508070029 64 277 2.0 12.0 0.00 0.00 0.00 50 1014.5
20260508064531 65 259 2.0 11.0 0.00 0.00 0.00 47 1014.2
20260508063043 66 227 6.0 16.0 0.00 0.00 0.00 46 1014.0
20260508061527 67 206 5.0 15.0 0.00 0.00 0.00 43 1013.7
20260508060031 68 216 3.0 16.0 0.00 0.00 0.00 42 1013.5
20260508054526 69 248 4.0 12.0 0.00 0.00 0.00 41 1013.1
20260508053025 69 264 6.0 11.0 0.00 0.00 0.00 39 1013.1
20260508051525 70 199 8.0 14.0 0.00 0.00 0.00 39 1012.9
20260508050023 70 218 4.0 13.0 0.00 0.00 0.00 39 1012.8
20260508044527 70 192 5.0 14.0 0.00 0.00 0.00 39 1012.7
20260508043023 71 209 4.0 11.0 0.00 0.00 0.00 38 1012.5
20260508041520 70 235 2.0 11.0 0.00 0.00 0.00 40 1012.5
20260508040019 70 204 3.0 10.0 0.00 0.00 0.00 39 1012.4
20260508034518 70 284 6.0 16.0 0.00 0.00 0.00 40 1012.4
20260508033116 69 206 6.0 13.0 0.00 0.00 0.00 39 1012.5
20260508031514 69 273 4.0 18.0 0.00 0.00 0.00 40 1012.7
20260508030013 69 197 5.0 18.0 0.00 0.00 0.00 40 1012.8
20260508024521 69 213 4.0 16.0 0.00 0.00 0.00 40 1012.9
20260508023012 69 200 6.0 14.0 0.00 0.00 0.00 40 1013.0
20260508021507 69 204 3.0 8.0 0.00 0.00 0.00 42 1013.3
20260508020005 68 260 4.0 9.0 0.00 0.00 0.00 43 1013.5
20260508014503 67 288 3.0 11.0 0.00 0.00 0.00 44 1013.6
20260508013059 66 296 3.0 10.0 0.00 0.00 0.00 46 1014.0
20260508011554 66 332 2.0 6.0 0.00 0.00 0.00 46 1014.3
20260508010050 64 294 2.0 8.0 0.00 0.00 0.00 48 1014.4
20260508004547 63 327 2.0 12.0 0.00 0.00 0.00 49 1014.7
20260508003044 63 296 4.0 12.0 0.00 0.00 0.00 49 1015.0
20260508001542 62 227 3.0 9.0 0.00 0.00 0.00 49 1015.1
20260508000041 60 313 2.0 9.0 0.00 0.00 0.00 52 1015.1
20260507234536 60 286 1.0 5.0 0.00 0.00 0.00 52 1015.2
20260507233041 59 320 3.0 5.0 0.00 0.00 0.00 53 1015.0
20260507231535 57 314 3.0 9.0 0.00 0.00 0.00 54 1015.0
20260507230026 56 294 3.0 7.0 0.00 0.00 0.00 56 1015.1
20260507224521 54 340 1.0 4.0 0.00 0.00 0.00 61 1015.0
20260507223017 52 316 2.0 6.0 0.00 0.00 0.00 62 1014.9
20260507221515 51 334 2.0 6.0 0.00 0.00 0.00 64 1014.9
20260507220009 50 11 2.0 8.0 0.00 0.00 0.00 65 1014.8
20260507214507 48 360 3.0 6.0 0.00 0.00 0.00 66 1014.8
20260507213004 47 344 4.0 9.0 0.00 0.00 0.00 67 1014.6
20260507211502 47 5 3.0 9.0 0.00 0.00 0.00 67 1014.7
20260507210001 47 17 2.0 6.0 0.00 0.00 0.00 67 1014.7
20260507204601 46 323 2.0 6.0 0.00 0.00 0.00 68 1014.6
20260507203110 45 343 2.0 5.0 0.00 0.00 0.00 69 1014.5
20260507201607 46 360 2.0 5.0 0.00 0.00 0.00 68 1014.5
20260507200108 45 340 3.0 5.0 0.00 0.00 0.00 68 1014.5
20260507194554 45 325 3.0 6.0 0.00 0.00 0.00 67 1014.5
20260507193057 46 355 3.0 5.0 0.00 0.00 0.00 67 1014.5
20260507191555 45 346 2.0 5.0 0.00 0.00 0.00 67 1014.5
20260507190058 45 351 1.0 3.0 0.00 0.00 0.00 69 1014.5
20260507184557 45 350 0.0 2.0 0.00 0.00 0.00 67 1014.6
20260507183050 46 350 0.0 3.0 0.00 0.00 0.00 65 1014.4
20260507181547 46 5 2.0 5.0 0.00 0.00 0.00 64 1014.3
20260507180049 46 360 2.0 5.0 0.00 0.00 0.00 64 1014.3
20260507174546 46 5 3.0 5.0 0.00 0.00 0.00 65 1014.4
20260507173042 45 292 0.0 3.0 0.00 0.00 0.00 66 1014.7
20260507171542 45 292 1.0 4.0 0.00 0.00 0.00 66 1014.7
20260507170040 45 281 0.0 3.0 0.00 0.00 0.00 66 1014.8
20260507164548 46 281 0.0 3.0 0.00 0.00 0.00 65 1014.9
20260507163036 46 278 1.0 3.0 0.00 0.00 0.00 68 1015.0
20260507161534 44 277 1.0 2.0 0.00 0.00 0.00 69 1015.1
20260507160033 44 276 0.0 0.0 0.00 0.00 0.00 69 1015.3
20260507154531 45 276 0.0 0.0 0.00 0.00 0.00 67 1015.4
20260507153026 46 276 0.0 0.0 0.00 0.00 0.00 65 1015.5
20260507151523 46 276 0.0 0.0 0.00 0.00 0.00 62 1015.5
20260507150025 47 276 0.0 3.0 0.00 0.00 0.00 61 1015.6
20260507144524 47 273 0.0 2.0 0.00 0.00 0.00 60 1015.7
20260507143016 47 275 0.0 2.0 0.00 0.00 0.00 59 1015.9
20260507141515 48 275 0.0 1.0 0.00 0.00 0.00 58 1016.0
20260507140012 48 275 0.0 0.0 0.00 0.00 0.00 57 1015.8
20260507134512 49 275 0.0 3.0 0.00 0.00 0.00 55 1016.0
20260507133010 50 273 0.0 3.0 0.00 0.00 0.00 54 1015.8
20260507131509 50 272 2.0 6.0 0.00 0.00 0.00 53 1015.9
20260507130008 50 267 1.0 9.0 0.00 0.00 0.00 53 1015.7
20260507124510 51 290 1.0 4.0 0.00 0.00 0.00 52 1015.7
20260507123009 51 300 1.0 5.0 0.00 0.00 0.00 50 1015.7
20260507121507 51 294 0.0 3.0 0.00 0.00 0.00 49 1015.8
20260507120007 52 315 1.0 8.0 0.00 0.00 0.00 49 1016.0
20260507114509 52 290 1.0 11.0 0.00 0.00 0.00 48 1015.9
20260507113012 52 252 1.0 4.0 0.00 0.00 0.00 48 1015.9
20260507111506 52 227 2.0 7.0 0.00 0.00 0.00 47 1016.0
20260507110003 52 294 4.0 11.0 0.00 0.00 0.00 47 1015.8